Precipitable_Water
0.19 0.13 0.15 0.13 0.14 0.17 0.18 0.20 0.20 0.22 0.22 0.23 0.23 0.21 0.20 0.19 0.18 0.19 0.19 0.19 0.18 0.14 0.13 0.15 0.16 0.15 0.16 0.16 0.16 0.19 0.27 0.33 0.38 0.54 0.71 0.79 0.76 0.66 0.70 0.77 0.76 0.78 0.87 0.97 0.96 0.95 0.93 0.97 1.04 1.07 1.11 1.15 1.20 1.26 1.27 1.27 1.28 1.32 1.33 1.32 1.34 1.45 1.50 1.48 1.42 1.38 1.38 1.32 1.35 1.41 1.38 1.37 1.41 1.40 1.43 1.45 1.51 1.51 1.56 1.53 1.53 1.45 1.38 1.39 1.36 1.34
0.18 0.13 0.15 0.16 0.15 0.19 0.22 0.23 0.22 0.24 0.27 0.23 0.21 0.18 0.16 0.16 0.15 0.18 0.20 0.22 0.19 0.15 0.15 0.15 0.14 0.14 0.15 0.17 0.19 0.22 0.25 0.30 0.35 0.43 0.56 0.63 0.72 0.72 0.70 0.79 0.67 0.74 0.82 0.91 0.91 0.94 0.94 0.96 0.99 1.03 1.08 1.08 1.07 1.15 1.18 1.15 1.24 1.30 1.31 1.31 1.34 1.44 1.49 1.49 1.44 1.43 1.42 1.38 1.43 1.41 1.38 1.41 1.42 1.40 1.37 1.37 1.45 1.59 1.63 1.50 1.47 1.41 1.37 1.36 1.29 1.28
0.15 0.13 0.15 0.18 0.18 0.20 0.25 0.28 0.28 0.27 0.26 0.23 0.19 0.17 0.16 0.17 0.18 0.19 0.22 0.24 0.21 0.17 0.15 0.15 0.13 0.14 0.16 0.17 0.19 0.21 0.23 0.30 0.30 0.36 0.50 0.49 0.53 0.66 0.74 0.88 0.77 0.75 0.82 0.80 0.82 0.94 1.01 0.97 0.98 0.99 1.03 1.06 1.06 1.08 1.08 1.16 1.18 1.24 1.30 1.31 1.34 1.39 1.41 1.42 1.45 1.46 1.36 1.43 1.54 1.45 1.48 1.46 1.44 1.49 1.47 1.44 1.45 1.50 1.56 1.49 1.44 1.39 1.33 1.31 1.26 1.24
0.17 0.15 0.16 0.19 0.21 0.21 0.27 0.31 0.29 0.26 0.23 0.21 0.19 0.16 0.16 0.18 0.17 0.14 0.22 0.26 0.22 0.18 0.15 0.16 0.16 0.15 0.16 0.18 0.19 0.20 0.21 0.26 0.27 0.28 0.36 0.52 0.55 0.56 0.59 0.81 0.81 0.82 0.85 0.80 0.83 0.92 0.97 0.99 0.97 0.99 1.02 1.08 1.07 1.07 1.07 1.11 1.14 1.20 1.22 1.25 1.34 1.40 1.44 1.43 1.47 1.44 1.47 1.51 1.57 1.62 1.53 1.52 1.49 1.43 1.43 1.43 1.43 1.49 1.44 1.42 1.40 1.33 1.30 1.27 1.24 1.22
0.18 0.21 0.21 0.18 0.23 0.26 0.25 0.26 0.25 0.23 0.21 0.21 0.21 0.20 0.18 0.18 0.17 0.17 0.22 0.26 0.26 0.23 0.20 0.16 0.15 0.15 0.18 0.17 0.18 0.19 0.21 0.23 0.26 0.25 0.26 0.34 0.50 0.57 0.58 0.62 0.79 0.85 0.89 0.89 0.91 0.97 1.00 0.94 0.95 0.97 1.04 1.12 1.10 1.07 1.02 1.06 1.13 1.17 1.19 1.25 1.34 1.41 1.47 1.47 1.52 1.50 1.45 1.53 1.54 1.52 1.52 1.52 1.49 1.42 1.41 1.36 1.36 1.37 1.42 1.41 1.29 1.26 1.25 1.23 1.18 1.18
0.19 0.24 0.28 0.20 0.26 0.24 0.23 0.22 0.21 0.21 0.19 0.21 0.23 0.20 0.21 0.21 0.20 0.18 0.23 0.21 0.18 0.16 0.18 0.16 0.12 0.11 0.14 0.14 0.14 0.17 0.19 0.21 0.24 0.23 0.22 0.24 0.30 0.45 0.52 0.55 0.68 0.76 0.96 0.90 0.89 0.99 1.03 0.99 0.99 1.02 1.02 1.05 1.10 1.08 1.07 1.10 1.18 1.25 1.27 1.32 1.40 1.41 1.46 1.46 1.48 1.50 1.46 1.44 1.46 1.41 1.38 1.31 1.29 1.26 1.27 1.26 1.28 1.22 1.31 1.28 1.24 1.24 1.18 1.15 1.14 1.15
0.20 0.26 0.28 0.25 0.24 0.22 0.20 0.19 0.23 0.21 0.18 0.18 0.21 0.24 0.22 0.22 0.22 0.22 0.20 0.16 0.14 0.11 0.15 0.19 0.13 0.11 0.15 0.15 0.17 0.17 0.17 0.20 0.24 0.24 0.22 0.23 0.25 0.30 0.45 0.55 0.63 0.86 0.86 0.80 0.89 1.03 1.01 1.00 1.03 1.03 1.00 1.01 1.04 1.11 1.19 1.22 1.28 1.35 1.39 1.46 1.43 1.41 1.39 1.46 1.50 1.48 1.47 1.44 1.45 1.40 1.38 1.33 1.30 1.22 1.26 1.36 1.32 1.22 1.36 1.33 1.20 1.15 1.12 1.10 1.07 1.13
0.23 0.26 0.29 0.26 0.22 0.19 0.18 0.16 0.21 0.23 0.18 0.16 0.22 0.24 0.26 0.24 0.20 0.18 0.17 0.16 0.15 0.17 0.21 0.22 0.20 0.15 0.13 0.15 0.19 0.22 0.22 0.20 0.22 0.25 0.24 0.23 0.24 0.27 0.42 0.50 0.55 0.79 0.78 0.66 0.73 0.86 0.98 1.06 1.02 0.97 1.01 1.04 1.10 1.22 1.32 1.34 1.38 1.40 1.33 1.46 1.46 1.36 1.37 1.41 1.43 1.44 1.49 1.41 1.43 1.41 1.38 1.34 1.32 1.24 1.27 1.33 1.34 1.37 1.43 1.26 1.13 1.08 1.04 1.04 1.07 1.13
0.26 0.25 0.27 0.24 0.20 0.19 0.17 0.18 0.21 0.21 0.19 0.19 0.21 0.25 0.23 0.21 0.19 0.18 0.17 0.16 0.16 0.15 0.14 0.19 0.21 0.15 0.12 0.15 0.19 0.24 0.25 0.24 0.23 0.25 0.27 0.25 0.24 0.25 0.33 0.46 0.53 0.71 0.84 0.86 0.81 0.84 0.92 0.95 0.99 1.04 1.05 1.14 1.25 1.33 1.37 1.40 1.37 1.39 1.42 1.32 1.37 1.43 1.43 1.41 1.44 1.42 1.41 1.37 1.39 1.42 1.37 1.31 1.32 1.39 1.34 1.35 1.31 1.28 1.31 1.15 1.10 1.01 0.97 1.01 1.10 1.13
0.30 0.29 0.28 0.24 0.22 0.19 0.21 0.23 0.25 0.25 0.19 0.20 0.24 0.25 0.24 0.21 0.20 0.18 0.17 0.16 0.17 0.16 0.13 0.16 0.20 0.16 0.15 0.17 0.17 0.19 0.22 0.23 0.23 0.24 0.24 0.26 0.29 0.27 0.27 0.34 0.43 0.53 0.89 0.97 0.94 0.87 0.99 1.00 1.05 1.06 1.18 1.28 1.35 1.43 1.42 1.39 1.38 1.40 1.45 1.46 1.47 1.47 1.49 1.46 1.41 1.42 1.34 1.33 1.35 1.34 1.28 1.32 1.35 1.36 1.34 1.21 1.21 1.29 1.17 1.06 0.99 0.93 0.98 1.04 1.09 1.14
0.33 0.35 0.35 0.29 0.23 0.23 0.23 0.24 0.26 0.27 0.22 0.26 0.24 0.22 0.19 0.18 0.18 0.18 0.18 0.18 0.17 0.14 0.15 0.18 0.18 0.18 0.16 0.19 0.19 0.17 0.22 0.27 0.30 0.38 0.48 0.46 0.49 0.44 0.39 0.40 0.36 0.41 0.64 0.93 0.91 0.96 1.01 1.06 1.08 1.18 1.20 1.21 1.25 1.31 1.34 1.35 1.38 1.43 1.50 1.43 1.32 1.37 1.38 1.39 1.37 1.31 1.27 1.31 1.30 1.29 1.28 1.31 1.30 1.31 1.23 1.15 1.20 1.19 1.05 1.01 0.95 0.89 0.97 1.04 1.07 1.12
0.27 0.31 0.29 0.28 0.28 0.26 0.24 0.23 0.24 0.26 0.25 0.23 0.21 0.17 0.16 0.17 0.19 0.19 0.19 0.19 0.15 0.14 0.18 0.20 0.18 0.18 0.15 0.18 0.25 0.35 0.44 0.46 0.49 0.56 0.53 0.48 0.49 0.46 0.47 0.41 0.44 0.67 0.91 0.96 0.86 0.77 0.77 0.96 1.06 1.11 1.09 1.10 1.15 1.18 1.20 1.23 1.25 1.34 1.30 1.30 1.22 1.22 1.26 1.32 1.36 1.34 1.30 1.28 1.28 1.31 1.31 1.26 1.27 1.23 1.11 1.13 1.14 1.07 0.92 0.93 0.93 0.93 0.96 1.00 1.05 1.08
0.22 0.25 0.26 0.25 0.26 0.26 0.25 0.23 0.27 0.27 0.24 0.20 0.19 0.17 0.15 0.16 0.19 0.17 0.18 0.16 0.15 0.14 0.19 0.19 0.20 0.19 0.19 0.23 0.37 0.30 0.46 0.46 0.50 0.48 0.50 0.48 0.47 0.46 0.48 0.48 0.45 0.69 0.80 0.75 0.82 0.84 0.90 1.02 1.07 1.03 1.02 1.06 1.08 1.12 1.12 1.09 1.14 1.22 1.27 1.25 1.20 1.16 1.20 1.24 1.30 1.30 1.27 1.27 1.30 1.32 1.32 1.30 1.26 1.20 1.15 1.10 1.12 0.98 0.89 0.93 0.93 0.93 0.94 0.93 0.93 0.97
0.20 0.26 0.25 0.24 0.25 0.24 0.26 0.19 0.21 0.22 0.20 0.18 0.16 0.16 0.15 0.15 0.18 0.16 0.18 0.18 0.18 0.19 0.19 0.24 0.23 0.19 0.23 0.30 0.48 0.51 0.52 0.55 0.54 0.49 0.51 0.68 0.67 0.67 0.65 0.58 0.57 0.69 0.80 0.73 0.86 0.99 1.02 1.09 1.08 0.99 0.98 1.01 1.03 1.01 0.99 1.01 1.05 1.11 1.20 1.20 1.15 1.15 1.22 1.23 1.22 1.25 1.25 1.26 1.29 1.31 1.31 1.31 1.24 1.22 1.17 1.16 1.03 0.92 0.97 0.98 0.97 0.97 0.96 0.95 0.95 0.92
0.19 0.20 0.23 0.23 0.20 0.25 0.22 0.20 0.21 0.21 0.19 0.17 0.18 0.17 0.18 0.19 0.18 0.17 0.18 0.17 0.17 0.19 0.21 0.25 0.21 0.19 0.19 0.21 0.45 0.53 0.57 0.61 0.66 0.64 0.68 0.78 0.81 0.74 0.64 0.65 0.63 0.80 0.94 0.97 1.04 1.02 1.01 1.07 1.06 0.99 1.01 0.99 0.97 0.96 1.00 1.01 1.03 1.10 1.11 1.13 1.16 1.16 1.20 1.23 1.20 1.22 1.23 1.25 1.29 1.32 1.32 1.28 1.26 1.18 1.14 1.13 1.07 0.95 1.01 1.02 1.01 1.00 1.01 0.96 0.98 0.96
0.23 0.24 0.30 0.31 0.27 0.28 0.21 0.21 0.23 0.22 0.21 0.20 0.20 0.20 0.18 0.19 0.23 0.18 0.24 0.22 0.21 0.21 0.20 0.25 0.22 0.24 0.30 0.50 0.54 0.57 0.56 0.61 0.58 0.63 0.74 0.73 0.79 0.84 0.81 0.82 0.81 0.87 0.87 0.97 1.00 0.99 1.00 1.03 1.07 1.00 1.00 0.99 0.99 0.98 0.98 0.99 1.04 1.08 1.11 1.11 1.11 1.12 1.16 1.19 1.20 1.22 1.25 1.27 1.28 1.30 1.28 1.21 1.23 1.14 1.16 1.18 1.12 1.01 1.08 1.05 1.01 1.05 0.99 0.99 0.98 1.00
0.25 0.23 0.29 0.33 0.32 0.29 0.27 0.24 0.22 0.24 0.18 0.23 0.21 0.17 0.18 0.24 0.24 0.22 0.22 0.26 0.27 0.22 0.19 0.24 0.25 0.25 0.36 0.44 0.45 0.49 0.51 0.57 0.63 0.64 0.71 0.74 0.85 0.82 0.76 0.72 0.80 0.84 0.82 0.94 0.94 0.94 0.98 1.00 1.10 1.03 0.97 1.01 1.00 1.00 0.99 1.02 1.09 1.12 1.13 1.13 1.11 1.11 1.14 1.15 1.18 1.22 1.27 1.29 1.25 1.24 1.23 1.19 1.18 1.20 1.19 1.20 1.10 1.01 1.11 1.07 1.02 1.07 0.99 1.04 1.02 1.04
0.24 0.23 0.28 0.29 0.27 0.28 0.29 0.28 0.25 0.24 0.26 0.28 0.22 0.22 0.24 0.25 0.26 0.24 0.20 0.23 0.20 0.17 0.17 0.19 0.17 0.23 0.24 0.27 0.49 0.50 0.53 0.56 0.59 0.66 0.67 0.77 0.81 0.77 0.84 0.85 0.90 0.90 0.90 0.86 0.95 0.94 0.99 1.01 1.05 1.06 1.08 1.06 1.07 1.05 1.03 1.06 1.11 1.15 1.17 1.18 1.13 1.11 1.09 1.12 1.17 1.21 1.26 1.27 1.26 1.23 1.19 1.17 1.17 1.16 1.13 1.18 1.14 1.03 1.08 1.07 1.04 1.03 1.05 1.02 1.05 1.08
0.27 0.22 0.25 0.27 0.27 0.27 0.26 0.26 0.24 0.25 0.25 0.24 0.26 0.33 0.22 0.20 0.18 0.24 0.22 0.18 0.18 0.18 0.17 0.17 0.18 0.19 0.25 0.32 0.42 0.50 0.51 0.51 0.58 0.67 0.69 0.68 0.76 0.75 0.79 0.85 0.91 0.94 0.93 0.97 0.95 0.96 0.95 0.97 1.01 1.05 1.05 1.11 1.12 1.14 1.11 1.10 1.12 1.13 1.16 1.18 1.15 1.13 1.13 1.13 1.19 1.24 1.28 1.29 1.27 1.24 1.19 1.17 1.15 1.13 1.15 1.18 1.15 1.06 1.08 1.05 1.06 1.02 1.08 1.04 1.06 1.04
0.34 0.22 0.26 0.30 0.26 0.26 0.24 0.22 0.18 0.20 0.24 0.24 0.27 0.27 0.30 0.28 0.27 0.22 0.22 0.21 0.20 0.17 0.16 0.16 0.18 0.19 0.37 0.41 0.44 0.47 0.54 0.56 0.59 0.62 0.69 0.72 0.76 0.80 0.86 0.86 0.93 0.98 0.99 0.98 0.96 0.94 0.96 0.97 1.05 1.10 1.09 1.10 1.09 1.10 1.14 1.15 1.13 1.13 1.15 1.15 1.16 1.18 1.19 1.18 1.19 1.23 1.23 1.28 1.27 1.23 1.17 1.15 1.15 1.13 1.19 1.16 1.11 1.08 1.07 1.05 1.06 1.04 1.04 1.02 1.00 0.99
0.30 0.29 0.22 0.28 0.30 0.26 0.21 0.20 0.18 0.21 0.21 0.20 0.20 0.21 0.26 0.26 0.30 0.29 0.31 0.25 0.21 0.18 0.16 0.15 0.15 0.29 0.42 0.50 0.55 0.55 0.57 0.60 0.64 0.64 0.69 0.71 0.74 0.74 0.84 0.93 0.96 0.99 0.99 0.98 0.99 0.98 0.99 1.01 1.03 1.11 1.16 1.16 1.18 1.19 1.20 1.18 1.20 1.19 1.16 1.13 1.15 1.15 1.17 1.18 1.20 1.22 1.23 1.28 1.27 1.20 1.11 1.15 1.14 1.14 1.20 1.15 1.09 1.05 1.07 1.05 1.06 1.03 1.05 1.05 1.01 1.01
0.27 0.28 0.21 0.29 0.26 0.23 0.22 0.24 0.20 0.22 0.24 0.22 0.21 0.19 0.21 0.22 0.22 0.19 0.19 0.30 0.28 0.25 0.22 0.20 0.21 0.34 0.50 0.58 0.54 0.58 0.63 0.61 0.68 0.70 0.70 0.74 0.71 0.73 0.76 0.86 0.89 0.91 0.96 0.97 0.99 1.02 1.02 1.03 1.08 1.11 1.15 1.15 1.17 1.20 1.19 1.25 1.25 1.17 1.17 1.15 1.15 1.17 1.20 1.20 1.22 1.22 1.23 1.26 1.28 1.16 1.13 1.12 1.12 1.14 1.15 1.13 1.10 1.02 1.06 1.05 1.05 1.02 1.02 1.02 1.05 1.04
0.32 0.33 0.26 0.25 0.27 0.26 0.23 0.25 0.26 0.27 0.31 0.29 0.27 0.24 0.23 0.23 0.25 0.24 0.19 0.24 0.25 0.25 0.25 0.23 0.23 0.30 0.56 0.57 0.57 0.62 0.66 0.69 0.73 0.75 0.72 0.70 0.73 0.72 0.76 0.79 0.85 0.89 0.89 0.93 0.94 0.97 1.01 1.04 1.09 1.12 1.14 1.13 1.11 1.13 1.17 1.24 1.25 1.25 1.22 1.19 1.17 1.16 1.18 1.22 1.25 1.27 1.28 1.28 1.25 1.15 1.17 1.20 1.13 1.12 1.11 1.12 1.06 1.00 1.03 1.07 1.05 1.05 1.03 1.01 1.06 1.04
0.37 0.31 0.28 0.26 0.29 0.31 0.34 0.34 0.35 0.34 0.32 0.30 0.31 0.33 0.30 0.26 0.27 0.24 0.24 0.30 0.26 0.26 0.23 0.21 0.18 0.32 0.54 0.57 0.65 0.68 0.71 0.73 0.76 0.77 0.73 0.72 0.72 0.74 0.76 0.78 0.78 0.80 0.84 0.85 0.87 0.91 0.95 0.99 1.04 1.09 1.09 1.09 1.06 1.02 1.07 1.16 1.25 1.26 1.28 1.28 1.23 1.19 1.23 1.25 1.28 1.31 1.33 1.29 1.21 1.18 1.20 1.19 1.18 1.08 1.10 1.09 1.03 1.00 1.07 1.10 1.08 1.09 1.03 1.03 1.04 1.03
0.29 0.30 0.28 0.25 0.22 0.27 0.30 0.30 0.31 0.33 0.29 0.26 0.27 0.30 0.31 0.31 0.33 0.35 0.41 0.41 0.29 0.26 0.26 0.28 0.20 0.28 0.52 0.59 0.62 0.65 0.64 0.65 0.66 0.70 0.72 0.68 0.70 0.73 0.77 0.80 0.83 0.85 0.85 0.85 0.86 0.87 0.89 0.91 0.93 0.98 1.03 1.08 1.11 1.12 1.15 1.18 1.20 1.22 1.24 1.23 1.27 1.29 1.30 1.27 1.29 1.32 1.31 1.21 1.16 1.19 1.17 1.20 1.18 1.14 1.12 1.11 1.07 1.03 1.09 1.10 1.07 1.10 0.99 1.00 0.99 1.03
0.34 0.34 0.28 0.21 0.20 0.18 0.19 0.20 0.23 0.25 0.26 0.28 0.28 0.33 0.39 0.34 0.32 0.30 0.26 0.29 0.24 0.26 0.26 0.26 0.29 0.39 0.50 0.59 0.58 0.60 0.60 0.59 0.65 0.66 0.68 0.70 0.71 0.72 0.75 0.78 0.82 0.82 0.81 0.81 0.81 0.82 0.83 0.87 0.90 0.92 0.95 1.01 1.06 1.07 1.14 1.20 1.17 1.19 1.24 1.22 1.29 1.27 1.22 1.26 1.32 1.33 1.34 1.25 1.21 1.15 1.24 1.23 1.22 1.20 1.18 1.16 1.08 1.03 1.06 1.11 1.07 1.09 1.00 0.91 0.91 1.00
0.38 0.37 0.34 0.29 0.27 0.30 0.33 0.35 0.37 0.39 0.35 0.27 0.35 0.35 0.36 0.36 0.36 0.37 0.33 0.27 0.23 0.29 0.28 0.37 0.34 0.36 0.43 0.51 0.52 0.54 0.57 0.56 0.59 0.64 0.64 0.67 0.71 0.75 0.77 0.80 0.82 0.82 0.82 0.79 0.78 0.80 0.82 0.83 0.85 0.88 0.92 0.95 0.99 1.02 1.06 1.13 1.17 1.15 1.17 1.21 1.28 1.26 1.28 1.31 1.30 1.31 1.24 1.22 1.19 1.22 1.24 1.20 1.19 1.19 1.16 1.12 1.07 1.08 1.10 1.09 1.09 1.04 1.01 0.97 0.96 0.95
0.40 0.38 0.39 0.41 0.43 0.42 0.42 0.41 0.39 0.38 0.34 0.38 0.39 0.38 0.38 0.43 0.42 0.35 0.27 0.27 0.38 0.28 0.23 0.39 0.50 0.42 0.43 0.46 0.50 0.53 0.57 0.59 0.60 0.62 0.67 0.69 0.71 0.72 0.75 0.77 0.79 0.78 0.79 0.79 0.76 0.74 0.75 0.79 0.82 0.85 0.88 0.91 0.92 0.99 1.04 1.09 1.17 1.18 1.15 1.21 1.27 1.28 1.28 1.26 1.35 1.30 1.21 1.20 1.22 1.20 1.20 1.21 1.26 1.19 1.14 1.12 1.09 1.10 1.08 1.08 1.07 1.05 1.05 1.03 0.95 0.89
0.39 0.35 0.38 0.41 0.40 0.40 0.39 0.39 0.42 0.43 0.44 0.48 0.50 0.51 0.44 0.43 0.42 0.37 0.37 0.42 0.39 0.31 0.27 0.35 0.49 0.41 0.43 0.47 0.51 0.52 0.58 0.59 0.61 0.63 0.69 0.72 0.73 0.73 0.73 0.73 0.73 0.73 0.74 0.74 0.73 0.73 0.72 0.72 0.76 0.80 0.85 0.91 0.94 0.95 1.04 1.10 1.15 1.20 1.19 1.25 1.26 1.26 1.31 1.31 1.29 1.30 1.24 1.17 1.12 1.18 1.24 1.23 1.23 1.25 1.16 1.12 1.08 1.09 1.07 1.07 1.09 1.09 1.05 1.02 0.93 0.88
0.45 0.37 0.40 0.43 0.42 0.39 0.38 0.38 0.41 0.40 0.44 0.44 0.47 0.46 0.44 0.43 0.42 0.42 0.40 0.41 0.41 0.39 0.38 0.39 0.46 0.40 0.44 0.48 0.52 0.55 0.60 0.61 0.63 0.66 0.69 0.69 0.69 0.71 0.71 0.71 0.71 0.71 0.73 0.74 0.75 0.76 0.77 0.77 0.77 0.78 0.81 0.84 0.91 0.97 1.04 1.10 1.15 1.20 1.23 1.21 1.26 1.25 1.25 1.32 1.28 1.24 1.23 1.20 1.24 1.25 1.25 1.18 1.20 1.22 1.20 1.14 1.08 1.06 1.06 1.08 1.09 1.09 1.04 1.00 0.96 0.91
0.42 0.36 0.47 0.47 0.41 0.39 0.39 0.37 0.38 0.41 0.44 0.40 0.42 0.43 0.43 0.44 0.43 0.42 0.41 0.40 0.43 0.43 0.42 0.43 0.39 0.38 0.48 0.55 0.56 0.61 0.61 0.62 0.62 0.62 0.64 0.66 0.68 0.69 0.70 0.70 0.69 0.71 0.73 0.74 0.75 0.77 0.80 0.81 0.82 0.83 0.84 0.86 0.91 0.97 1.06 1.09 1.13 1.19 1.22 1.24 1.27 1.24 1.29 1.35 1.28 1.26 1.22 1.17 1.21 1.29 1.23 1.22 1.20 1.20 1.20 1.19 1.13 1.09 1.09 1.10 1.09 1.10 1.05 1.01 0.99 0.97
0.43 0.38 0.44 0.41 0.37 0.33 0.39 0.37 0.38 0.38 0.43 0.43 0.39 0.38 0.39 0.40 0.36 0.39 0.36 0.43 0.41 0.39 0.42 0.41 0.37 0.38 0.49 0.56 0.59 0.60 0.59 0.59 0.59 0.60 0.62 0.65 0.68 0.69 0.68 0.69 0.69 0.70 0.71 0.73 0.75 0.77 0.79 0.80 0.82 0.83 0.84 0.87 0.91 0.97 1.03 1.08 1.12 1.15 1.18 1.23 1.24 1.25 1.29 1.31 1.28 1.24 1.22 1.21 1.23 1.20 1.18 1.17 1.17 1.18 1.21 1.22 1.16 1.12 1.14 1.12 1.10 1.09 1.08 1.07 1.03 0.99
0.45 0.41 0.38 0.38 0.33 0.34 0.40 0.37 0.36 0.38 0.40 0.38 0.37 0.40 0.41 0.42 0.43 0.43 0.44 0.45 0.46 0.47 0.39 0.36 0.39 0.48 0.53 0.57 0.54 0.55 0.57 0.59 0.60 0.60 0.61 0.64 0.67 0.68 0.69 0.70 0.71 0.72 0.72 0.73 0.74 0.75 0.78 0.80 0.82 0.85 0.88 0.90 0.94 0.98 1.02 1.07 1.10 1.11 1.16 1.19 1.21 1.23 1.23 1.25 1.23 1.23 1.23 1.24 1.23 1.21 1.19 1.19 1.18 1.17 1.20 1.23 1.22 1.24 1.22 1.18 1.16 1.14 1.10 1.05 1.04 1.03
0.43 0.39 0.35 0.45 0.35 0.38 0.41 0.39 0.39 0.34 0.26 0.30 0.47 0.52 0.49 0.42 0.43 0.41 0.39 0.42 0.47 0.48 0.44 0.48 0.50 0.54 0.55 0.54 0.52 0.53 0.55 0.57 0.59 0.63 0.66 0.65 0.66 0.68 0.71 0.72 0.73 0.74 0.74 0.75 0.75 0.76 0.79 0.82 0.83 0.85 0.90 0.93 0.97 1.01 1.04 1.06 1.08 1.12 1.16 1.18 1.20 1.19 1.20 1.20 1.21 1.21 1.21 1.23 1.23 1.23 1.22 1.20 1.18 1.17 1.18 1.20 1.21 1.18 1.18 1.17 1.11 1.10 1.08 1.04 1.02 0.99
0.40 0.40 0.37 0.46 0.37 0.35 0.42 0.41 0.32 0.23 0.27 0.44 0.54 0.55 0.56 0.53 0.50 0.47 0.46 0.47 0.48 0.51 0.50 0.48 0.49 0.51 0.55 0.56 0.57 0.57 0.58 0.61 0.63 0.65 0.66 0.69 0.70 0.69 0.71 0.74 0.74 0.74 0.75 0.74 0.76 0.77 0.79 0.81 0.84 0.85 0.88 0.91 0.94 0.97 1.01 1.04 1.07 1.09 1.09 1.11 1.12 1.14 1.18 1.17 1.16 1.16 1.17 1.19 1.24 1.24 1.21 1.19 1.19 1.19 1.18 1.15 1.15 1.15 1.14 1.09 1.10 1.12 1.13 1.09 1.07 1.04
0.37 0.38 0.41 0.42 0.41 0.41 0.39 0.37 0.25 0.25 0.39 0.48 0.52 0.56 0.58 0.57 0.54 0.50 0.46 0.50 0.51 0.51 0.51 0.48 0.50 0.53 0.56 0.57 0.58 0.61 0.60 0.62 0.64 0.66 0.67 0.70 0.72 0.71 0.70 0.72 0.74 0.76 0.75 0.76 0.76 0.78 0.79 0.81 0.84 0.85 0.87 0.90 0.91 0.92 0.94 0.96 1.02 1.05 1.05 1.09 1.05 1.05 1.08 1.11 1.13 1.13 1.13 1.14 1.16 1.18 1.18 1.15 1.14 1.16 1.16 1.15 1.14 1.12 1.11 1.10 1.09 1.10 1.11 1.09 1.10 1.10
0.43 0.47 0.45 0.39 0.46 0.32 0.33 0.33 0.33 0.41 0.40 0.42 0.43 0.48 0.52 0.47 0.48 0.45 0.37 0.45 0.53 0.55 0.54 0.52 0.52 0.54 0.56 0.57 0.58 0.61 0.62 0.62 0.58 0.60 0.68 0.69 0.70 0.72 0.72 0.73 0.76 0.78 0.78 0.79 0.80 0.80 0.82 0.84 0.85 0.86 0.88 0.89 0.90 0.91 0.90 0.92 0.95 0.96 0.99 1.01 1.03 1.05 1.04 1.04 1.04 1.07 1.09 1.10 1.10 1.13 1.16 1.17 1.16 1.14 1.13 1.14 1.13 1.12 1.10 1.10 1.09 1.10 1.11 1.08 1.08 1.07
0.48 0.44 0.50 0.41 0.34 0.38 0.32 0.29 0.30 0.31 0.26 0.34 0.44 0.52 0.57 0.59 0.59 0.57 0.50 0.45 0.58 0.59 0.60 0.56 0.54 0.56 0.56 0.58 0.58 0.59 0.61 0.54 0.49 0.52 0.63 0.68 0.70 0.71 0.72 0.73 0.75 0.77 0.78 0.79 0.81 0.83 0.83 0.84 0.85 0.85 0.85 0.85 0.87 0.90 0.92 0.92 0.91 0.91 0.92 0.93 0.94 0.97 1.01 1.02 1.01 1.04 1.06 1.06 1.08 1.09 1.10 1.12 1.13 1.11 1.12 1.12 1.09 1.09 1.09 1.10 1.09 1.08 1.08 1.06 1.05 1.04
0.49 0.51 0.49 0.41 0.34 0.32 0.34 0.26 0.26 0.25 0.28 0.41 0.44 0.50 0.55 0.60 0.60 0.59 0.49 0.40 0.55 0.60 0.62 0.60 0.58 0.59 0.58 0.58 0.58 0.59 0.54 0.45 0.45 0.52 0.61 0.65 0.67 0.69 0.68 0.70 0.72 0.75 0.77 0.78 0.78 0.77 0.77 0.79 0.82 0.84 0.84 0.83 0.82 0.85 0.89 0.90 0.91 0.90 0.89 0.90 0.91 0.92 0.93 0.94 0.98 1.00 1.02 1.05 1.06 1.08 1.09 1.10 1.09 1.07 1.07 1.06 1.07 1.07 1.06 1.05 1.05 1.05 1.05 1.03 1.02 1.01
0.44 0.45 0.41 0.34 0.35 0.34 0.33 0.31 0.27 0.32 0.32 0.42 0.48 0.52 0.57 0.61 0.59 0.52 0.33 0.34 0.54 0.60 0.62 0.62 0.59 0.60 0.61 0.62 0.62 0.58 0.52 0.46 0.49 0.55 0.64 0.67 0.69 0.70 0.69 0.68 0.69 0.71 0.74 0.76 0.77 0.78 0.79 0.77 0.73 0.74 0.77 0.77 0.77 0.81 0.84 0.86 0.87 0.88 0.87 0.87 0.89 0.89 0.89 0.91 0.93 0.96 0.98 1.01 1.03 1.04 1.05 1.05 1.05 1.05 1.05 1.03 1.03 1.04 1.05 1.06 1.06 1.05 1.04 1.03 1.03 1.01
0.36 0.36 0.40 0.35 0.34 0.33 0.32 0.31 0.33 0.34 0.43 0.48 0.50 0.55 0.57 0.60 0.53 0.35 0.29 0.41 0.57 0.60 0.62 0.63 0.62 0.63 0.64 0.63 0.64 0.56 0.61 0.62 0.63 0.66 0.69 0.71 0.70 0.71 0.72 0.73 0.73 0.73 0.72 0.73 0.75 0.77 0.76 0.76 0.76 0.75 0.74 0.74 0.74 0.73 0.75 0.77 0.79 0.81 0.82 0.83 0.82 0.81 0.83 0.86 0.89 0.90 0.92 0.94 0.95 0.96 0.97 0.99 0.99 0.97 0.96 0.97 0.97 0.98 0.99 1.00 0.99 0.98 0.98 0.97 0.98 0.98
0.33 0.35 0.34 0.36 0.32 0.30 0.32 0.26 0.28 0.33 0.43 0.50 0.53 0.56 0.57 0.48 0.33 0.33 0.48 0.60 0.59 0.58 0.62 0.62 0.61 0.63 0.65 0.64 0.64 0.63 0.65 0.68 0.69 0.71 0.69 0.70 0.71 0.71 0.72 0.72 0.74 0.75 0.76 0.76 0.76 0.76 0.75 0.75 0.75 0.75 0.75 0.77 0.77 0.76 0.73 0.69 0.67 0.69 0.71 0.73 0.75 0.76 0.78 0.79 0.80 0.81 0.81 0.82 0.83 0.86 0.87 0.88 0.89 0.90 0.90 0.90 0.89 0.86 0.87 0.90 0.93 0.93 0.93 0.93 0.92 0.92
0.33 0.31 0.27 0.27 0.31 0.32 0.31 0.28 0.25 0.22 0.39 0.50 0.51 0.50 0.52 0.38 0.42 0.53 0.57 0.60 0.62 0.60 0.59 0.60 0.61 0.62 0.63 0.61 0.64 0.65 0.66 0.67 0.68 0.68 0.69 0.70 0.69 0.70 0.70 0.71 0.71 0.71 0.72 0.74 0.74 0.75 0.75 0.74 0.74 0.74 0.75 0.77 0.78 0.78 0.77 0.74 0.70 0.68 0.68 0.68 0.71 0.74 0.74 0.74 0.75 0.76 0.76 0.76 0.76 0.76 0.76 0.77 0.77 0.78 0.80 0.80 0.81 0.81 0.80 0.81 0.79 0.78 0.78 0.75 0.74 0.74
0.39 0.29 0.29 0.30 0.36 0.29 0.27 0.24 0.25 0.37 0.45 0.52 0.48 0.38 0.48 0.50 0.56 0.57 0.57 0.54 0.61 0.61 0.59 0.59 0.60 0.61 0.62 0.60 0.61 0.63 0.64 0.65 0.66 0.67 0.67 0.68 0.68 0.69 0.69 0.69 0.68 0.69 0.70 0.71 0.73 0.74 0.76 0.75 0.75 0.75 0.76 0.78 0.79 0.78 0.78 0.77 0.74 0.74 0.73 0.73 0.75 0.75 0.76 0.75 0.73 0.73 0.72 0.72 0.71 0.71 0.72 0.72 0.72 0.72 0.71 0.71 0.71 0.71 0.71 0.72 0.73 0.72 0.73 0.73 0.74 0.73
0.39 0.35 0.38 0.29 0.38 0.32 0.29 0.33 0.40 0.46 0.48 0.52 0.52 0.51 0.53 0.58 0.60 0.60 0.59 0.58 0.58 0.60 0.64 0.60 0.60 0.62 0.62 0.60 0.60 0.61 0.61 0.62 0.62 0.64 0.64 0.64 0.65 0.65 0.65 0.65 0.65 0.65 0.66 0.66 0.67 0.69 0.70 0.71 0.73 0.74 0.75 0.77 0.78 0.79 0.79 0.78 0.75 0.74 0.72 0.75 0.76 0.73 0.72 0.72 0.72 0.72 0.71 0.72 0.72 0.72 0.71 0.69 0.68 0.68 0.68 0.68 0.67 0.66 0.65 0.64 0.66 0.65 0.64 0.65 0.62 0.63
0.42 0.42 0.41 0.36 0.34 0.41 0.44 0.44 0.46 0.47 0.47 0.49 0.51 0.53 0.53 0.55 0.59 0.60 0.59 0.57 0.60 0.62 0.64 0.61 0.63 0.63 0.63 0.62 0.59 0.58 0.59 0.60 0.60 0.60 0.61 0.62 0.62 0.63 0.63 0.63 0.63 0.63 0.64 0.64 0.66 0.66 0.67 0.68 0.69 0.70 0.72 0.74 0.75 0.75 0.76 0.76 0.76 0.74 0.75 0.76 0.75 0.73 0.72 0.69 0.67 0.67 0.68 0.67 0.67 0.68 0.69 0.68 0.67 0.65 0.65 0.64 0.63 0.61 0.61 0.61 0.59 0.58 0.58 0.58 0.57 0.55
0.36 0.38 0.35 0.30 0.35 0.30 0.25 0.40 0.39 0.39 0.43 0.45 0.46 0.50 0.53 0.54 0.55 0.58 0.58 0.59 0.60 0.63 0.63 0.64 0.63 0.63 0.63 0.62 0.59 0.56 0.55 0.56 0.56 0.57 0.59 0.59 0.60 0.60 0.60 0.60 0.60 0.61 0.61 0.61 0.63 0.65 0.65 0.65 0.64 0.65 0.66 0.68 0.71 0.71 0.71 0.71 0.73 0.73 0.75 0.75 0.76 0.76 0.76 0.73 0.70 0.67 0.66 0.66 0.66 0.66 0.64 0.64 0.65 0.64 0.63 0.63 0.62 0.61 0.59 0.59 0.58 0.56 0.56 0.56 0.55 0.54
0.24 0.33 0.27 0.28 0.27 0.24 0.25 0.32 0.34 0.36 0.36 0.38 0.40 0.40 0.41 0.45 0.49 0.54 0.56 0.58 0.60 0.62 0.64 0.64 0.65 0.63 0.63 0.58 0.58 0.56 0.55 0.56 0.54 0.53 0.53 0.55 0.57 0.58 0.59 0.59 0.60 0.61 0.62 0.63 0.63 0.63 0.63 0.63 0.62 0.62 0.62 0.63 0.66 0.68 0.68 0.68 0.68 0.70 0.70 0.71 0.71 0.70 0.69 0.68 0.68 0.68 0.67 0.67 0.66 0.65 0.64 0.63 0.62 0.63 0.60 0.59 0.58 0.57 0.57 0.58 0.58 0.56 0.50 0.49 0.49 0.50
0.23 0.27 0.19 0.23 0.21 0.26 0.30 0.30 0.30 0.32 0.30 0.32 0.36 0.39 0.41 0.42 0.42 0.44 0.48 0.51 0.53 0.55 0.58 0.61 0.63 0.62 0.62 0.61 0.61 0.59 0.57 0.57 0.55 0.55 0.55 0.56 0.56 0.56 0.57 0.58 0.59 0.61 0.64 0.64 0.64 0.63 0.60 0.61 0.61 0.61 0.60 0.60 0.63 0.64 0.65 0.65 0.67 0.68 0.67 0.67 0.68 0.67 0.65 0.63 0.62 0.62 0.62 0.62 0.61 0.60 0.60 0.59 0.58 0.58 0.58 0.56 0.54 0.53 0.53 0.51 0.51 0.53 0.51 0.50 0.49 0.45
0.23 0.21 0.25 0.24 0.19 0.20 0.22 0.26 0.33 0.24 0.20 0.27 0.30 0.34 0.37 0.40 0.41 0.40 0.41 0.42 0.43 0.45 0.49 0.51 0.55 0.59 0.60 0.60 0.59 0.58 0.56 0.55 0.56 0.57 0.54 0.54 0.56 0.57 0.59 0.60 0.61 0.61 0.62 0.64 0.64 0.64 0.63 0.63 0.62 0.60 0.60 0.61 0.62 0.61 0.60 0.60 0.60 0.61 0.62 0.64 0.65 0.65 0.63 0.63 0.61 0.59 0.56 0.56 0.56 0.57 0.56 0.55 0.54 0.54 0.53 0.53 0.52 0.51 0.48 0.50 0.50 0.49 0.49 0.48 0.48 0.48
0.26 0.28 0.31 0.21 0.19 0.16 0.26 0.30 0.31 0.29 0.28 0.29 0.31 0.33 0.32 0.32 0.34 0.34 0.36 0.39 0.41 0.42 0.43 0.43 0.43 0.46 0.50 0.55 0.58 0.56 0.55 0.54 0.55 0.56 0.55 0.56 0.57 0.57 0.57 0.57 0.58 0.58 0.59 0.60 0.61 0.61 0.61 0.60 0.60 0.60 0.59 0.60 0.61 0.62 0.62 0.61 0.60 0.59 0.58 0.60 0.59 0.58 0.58 0.58 0.57 0.56 0.55 0.53 0.51 0.52 0.54 0.53 0.52 0.52 0.52 0.50 0.50 0.50 0.48 0.46 0.46 0.47 0.48 0.47 0.47 0.46
Wind_Speed
16 16 17 18 17 18 18 19 19 17 14 14 13 13 15 15 14 13 13 13 13 15 16 17 18 18 19 20 19 17 17 20 21 20 20 20 20 20 20 18 18 18 17 17 17 16 16 15 14 14 14 14 16 17 18 19 19 19 19 20 19 19 18 18 18 17 16 16 16 16 14 13 13 13 13 13 13 13 14 13 11 10 10 9 10 9
16 17 18 18 18 18 18 19 20 18 15 15 16 15 16 16 15 14 13 14 14 15 16 17 18 20 20 20 19 18 17 18 21 22 21 21 22 21 20 19 19 19 18 17 17 17 17 16 15 14 14 15 16 17 17 19 20 19 19 20 20 19 18 19 19 18 17 17 17 16 15 14 13 13 13 13 13 13 13 12 10 10 10 9 10 9
16 18 18 18 19 18 17 16 18 17 16 17 17 17 17 16 16 15 13 14 15 15 16 17 18 19 20 20 21 21 19 18 21 23 21 22 23 22 22 20 19 20 19 19 19 19 18 18 17 16 15 15 17 17 17 18 20 20 19 19 19 19 19 19 19 18 18 18 17 16 15 14 13 13 13 13 14 13 12 11 11 10 9 9 9 9
15 17 19 19 18 17 17 16 17 17 17 18 17 17 17 17 17 16 14 14 16 16 17 17 17 18 18 19 21 22 22 20 21 23 23 23 23 23 24 21 19 20 21 20 20 20 20 20 19 18 17 17 18 18 18 19 20 21 21 20 20 20 20 19 19 18 18 18 18 16 14 13 13 13 12 12 13 13 12 11 10 10 9 9 8 8
16 14 15 18 16 16 17 17 18 17 17 18 19 19 18 18 18 16 14 14 14 16 18 18 17 18 18 19 20 21 22 21 20 22 24 24 23 23 24 23 21 22 22 21 21 21 21 21 20 19 19 18 19 19 19 19 21 21 22 22 21 20 20 19 19 18 17 18 17 16 14 13 13 13 12 12 12 13 12 11 10 10 9 9 8 8
18 14 13 15 15 16 18 18 18 18 17 18 19 20 20 19 19 16 15 16 16 16 17 18 18 17 18 20 21 20 21 22 21 21 23 24 24 23 24 23 21 22 23 22 22 22 22 22 22 21 21 20 20 20 20 21 22 23 23 23 22 21 20 19 18 18 17 17 17 15 14 13 13 13 13 13 12 13 13 11 10 10 10 9 9 8
17 15 14 16 16 17 18 18 18 18 18 18 18 19 20 20 19 19 19 18 17 16 14 16 17 16 16 17 18 18 19 20 20 20 22 23 23 23 24 23 22 22 22 22 23 23 22 22 23 23 22 22 22 22 22 23 24 24 23 23 22 20 19 18 17 17 16 16 16 15 14 14 13 13 13 13 13 13 13 11 10 10 10 9 9 9
17 16 15 17 18 17 18 17 18 18 18 17 16 16 18 18 19 19 19 18 17 16 13 14 16 16 16 15 14 15 17 19 19 19 21 22 23 23 23 23 23 23 22 23 24 24 24 24 24 24 23 23 24 24 24 24 24 24 23 21 19 18 18 18 17 16 15 15 15 14 14 14 14 13 13 14 13 13 13 11 11 10 10 10 9 9
17 18 16 17 17 17 17 16 17 18 18 17 15 14 15 17 18 18 17 17 17 17 16 16 16 17 17 15 14 15 16 17 18 18 19 21 23 23 24 25 24 22 22 23 24 24 25 25 25 24 24 24 24 25 25 24 22 21 20 20 18 17 17 17 16 15 14 14 15 14 14 14 14 14 14 14 14 14 13 11 11 10 10 10 9 9
15 18 17 17 17 16 16 15 15 16 17 16 14 14 16 16 17 17 16 17 16 17 18 17 17 16 16 15 14 16 17 17 17 17 16 16 18 20 21 23 25 24 23 23 23 24 24 25 24 24 24 22 22 23 22 21 19 18 18 18 17 17 16 15 15 14 13 14 15 15 15 15 15 14 14 14 15 14 13 11 11 11 10 10 10 9
13 13 15 16 17 17 17 17 16 16 16 15 13 14 16 16 16 16 15 15 15 16 17 18 19 17 15 14 11 11 13 14 13 14 14 14 15 17 18 20 22 24 24 23 23 23 22 22 22 22 22 20 18 18 17 17 17 17 17 17 15 15 15 15 14 14 13 14 15 16 16 16 15 15 15 15 16 15 13 11 11 10 10 9 9 9
15 14 15 16 18 17 17 17 17 17 17 16 14 14 15 14 14 14 14 14 15 15 15 17 19 18 16 13 10 10 10 10 11 12 13 15 16 17 19 21 21 21 23 23 22 22 22 21 20 20 21 21 19 17 16 15 16 17 17 14 11 13 15 15 14 13 13 14 15 16 16 16 16 16 16 17 16 14 12 12 11 10 10 9 9 9
18 17 16 16 17 18 17 16 16 16 17 17 16 15 15 13 13 13 13 13 14 14 14 13 14 16 15 12 10 11 10 10 12 12 13 15 17 18 19 21 22 20 22 24 23 22 22 22 20 20 20 20 19 18 17 16 17 18 19 16 13 13 14 15 14 13 13 13 14 15 16 17 17 17 18 18 17 14 12 12 11 11 11 10 9 9
17 17 17 16 16 17 18 17 15 15 17 18 17 16 15 13 12 12 12 12 13 13 13 11 11 13 13 11 9 9 9 11 12 12 12 14 16 18 18 19 22 21 20 22 22 21 21 21 21 21 20 19 18 18 17 18 18 19 20 18 16 15 15 15 14 14 14 14 14 15 16 16 17 18 18 18 16 14 13 12 12 12 11 10 10 9
15 15 16 17 16 17 19 19 17 15 16 18 17 17 16 14 13 11 10 11 11 11 12 12 11 12 12 11 10 10 10 11 12 11 11 12 13 14 15 16 18 19 18 19 20 20 20 21 21 21 20 19 19 19 19 19 19 19 20 19 17 16 16 15 15 14 14 14 14 15 16 16 17 18 18 17 16 15 14 13 13 12 11 11 10 9
16 14 14 17 17 17 18 20 19 16 15 16 17 18 17 15 14 12 10 10 9 9 10 11 12 11 10 10 10 10 10 9 10 10 9 10 10 11 12 13 14 16 16 17 18 18 20 20 20 19 19 18 18 19 19 19 19 18 18 18 16 16 15 15 15 15 14 14 14 15 16 17 17 19 19 17 16 16 15 14 13 12 11 11 10 10
15 14 12 15 17 17 17 19 20 18 14 13 16 18 17 15 14 14 13 11 11 11 11 11 12 10 10 11 10 9 9 8 8 8 8 8 8 9 11 12 12 13 15 15 16 17 18 18 18 17 18 18 18 18 18 19 19 18 18 17 16 16 16 15 15 15 15 15 15 16 17 17 18 19 19 18 17 17 16 15 14 13 12 11 10 10
14 13 12 15 16 16 17 18 20 21 17 13 14 15 15 15 14 13 12 12 12 13 12 13 14 12 10 10 8 7 7 7 7 7 7 7 6 7 9 11 11 11 12 13 13 14 15 15 16 16 17 17 17 17 18 18 18 18 18 17 16 16 16 16 15 15 15 15 16 17 17 18 18 19 19 18 18 18 17 16 15 13 12 11 11 10
13 13 13 15 16 16 17 17 18 21 22 18 14 12 13 14 14 14 14 12 12 12 11 13 15 11 8 8 8 7 7 7 8 8 7 6 5 5 7 9 10 10 10 11 10 11 12 13 14 15 16 17 17 17 17 17 18 18 18 17 16 16 16 16 15 15 16 16 16 17 18 18 19 19 19 19 18 18 17 16 15 14 12 12 11 11
13 13 13 14 15 15 15 17 17 18 20 21 17 14 14 13 12 13 13 13 13 12 11 12 13 9 7 7 8 7 6 7 8 8 8 7 6 4 3 5 6 7 8 9 9 9 10 11 12 14 15 16 16 16 17 18 18 18 18 18 17 17 17 17 16 15 16 16 17 18 19 19 19 20 20 20 19 18 17 16 15 15 13 12 11 11
14 14 13 12 14 15 15 16 18 17 18 19 19 17 16 14 13 13 13 13 13 12 11 11 10 8 7 7 7 6 6 7 8 8 8 7 6 5 3 2 2 3 5 6 7 8 9 11 12 13 14 15 15 16 17 18 18 18 18 18 18 17 17 17 17 16 16 16 17 18 19 19 20 21 21 21 20 18 17 16 16 15 13 12 11 11
14 15 15 13 13 15 16 17 18 18 17 18 18 18 18 16 14 13 14 14 14 12 11 10 8 6 6 7 6 6 6 6 6 7 8 6 5 6 5 3 3 3 4 5 7 8 9 10 12 13 14 15 16 16 17 18 18 19 18 18 18 18 18 18 18 17 17 17 18 18 19 19 20 21 21 21 20 19 18 17 16 15 14 13 12 11
15 14 16 16 14 14 14 15 17 16 16 17 17 17 18 18 17 15 14 13 13 13 12 12 10 7 6 6 5 5 5 5 5 5 6 5 5 7 7 6 5 5 5 6 7 8 9 10 12 13 13 14 15 16 16 17 18 19 19 19 18 19 19 18 18 17 17 18 18 18 19 19 19 21 21 21 21 19 18 18 17 15 15 14 13 12
16 15 16 17 15 13 12 14 15 16 16 17 16 16 16 17 17 16 14 12 13 12 11 11 11 8 7 7 5 4 5 5 5 5 5 6 6 6 8 8 7 7 7 7 7 8 9 10 11 13 14 14 15 16 17 18 19 20 20 19 19 19 19 18 18 18 18 19 19 19 19 19 20 21 21 21 20 19 18 18 17 16 15 14 13 12
16 16 16 16 16 14 14 15 16 17 18 18 17 17 17 17 17 15 13 13 14 13 12 11 9 7 8 8 6 5 5 5 5 5 5 6 7 6 7 8 8 8 8 8 8 9 10 11 11 13 14 15 15 17 18 19 20 19 18 18 18 18 19 18 18 18 18 19 19 19 19 20 20 21 21 21 20 19 19 18 17 15 15 14 14 13
15 16 16 17 16 15 15 14 14 14 16 17 18 17 15 17 18 16 14 14 14 14 14 13 9 7 7 7 6 6 5 4 4 5 5 5 6 6 7 8 8 8 8 8 9 10 11 11 12 12 14 15 16 17 17 18 19 19 18 18 18 18 18 19 19 18 18 19 19 18 19 20 20 21 21 20 20 19 19 18 17 16 15 15 14 14
15 16 17 17 16 14 13 12 12 13 14 15 16 16 16 18 18 17 16 15 13 12 11 9 8 9 8 6 6 5 5 5 5 5 5 5 5 6 7 7 7 8 8 8 9 10 10 11 12 12 13 15 15 16 17 17 18 19 18 17 17 17 18 19 18 18 19 19 19 19 19 20 20 20 20 20 20 19 19 18 17 16 15 15 15 14
16 17 18 18 16 14 13 12 12 12 12 13 14 15 15 17 16 16 16 14 13 14 12 8 8 9 8 6 6 5 5 6 5 5 5 5 6 6 7 7 7 7 7 8 8 9 10 10 11 12 13 14 15 16 17 16 16 17 18 17 16 17 18 18 18 18 19 20 20 19 19 19 19 19 19 19 19 19 19 18 17 16 15 15 14 14
17 17 17 18 17 14 12 12 12 11 11 12 12 11 11 12 11 12 12 11 12 13 12 11 10 9 7 8 7 6 6 6 5 5 6 6 6 6 6 6 6 7 7 7 8 8 9 10 10 11 12 13 14 14 15 15 15 15 15 16 16 17 17 18 18 18 19 20 20 20 20 19 18 19 19 19 19 19 19 18 17 16 15 14 14 14
15 15 15 17 17 15 14 13 12 12 13 12 9 8 9 9 9 9 9 9 10 10 10 12 10 7 7 8 7 7 8 7 6 6 6 6 5 5 5 6 6 6 6 7 7 8 9 9 10 10 10 11 11 11 12 13 13 13 13 14 16 17 17 17 18 18 18 20 21 20 20 19 18 18 19 19 19 20 19 18 17 16 15 14 14 14
14 14 14 14 16 17 17 16 15 14 14 12 9 9 9 10 9 9 9 10 10 10 11 12 11 9 9 9 8 8 8 7 7 6 6 6 5 5 5 5 6 6 6 6 7 8 8 9 9 10 10 9 8 8 9 11 12 12 12 13 14 16 17 17 17 17 18 19 20 19 19 19 19 18 18 18 19 19 19 18 17 16 15 14 14 13
15 15 14 14 16 16 16 17 17 17 15 12 10 10 10 10 11 10 10 10 11 11 12 12 12 12 11 10 9 9 8 6 6 6 6 6 5 5 5 5 6 6 6 6 7 7 8 8 8 8 8 8 7 6 7 9 10 11 11 11 12 14 15 16 15 15 16 18 19 18 18 18 18 18 18 17 17 18 18 17 16 16 15 14 14 14
15 16 16 15 16 15 14 15 15 16 16 13 11 12 11 11 11 11 11 11 11 11 12 13 12 11 12 12 10 9 8 7 6 6 6 7 6 6 6 6 6 6 6 7 7 7 7 7 7 7 6 6 5 4 5 7 9 10 11 11 11 11 13 13 14 14 15 17 18 18 17 17 17 18 18 17 17 17 17 17 16 16 16 15 14 14
15 16 15 15 15 14 13 13 14 15 15 12 11 12 13 12 11 11 11 11 11 11 11 12 12 12 12 11 10 9 8 8 8 7 7 7 7 7 7 6 6 7 7 7 7 7 7 6 6 5 4 4 3 2 3 5 6 8 10 11 11 11 11 12 13 13 13 14 16 17 17 17 17 18 18 18 18 17 17 16 16 16 16 16 16 15
15 15 15 14 14 13 13 14 15 15 13 11 9 11 12 13 12 11 11 10 10 11 11 11 12 12 11 11 10 9 8 8 8 7 6 7 7 8 8 7 7 7 7 7 7 7 7 6 5 4 4 4 3 2 2 4 5 7 8 9 10 10 10 10 12 13 13 13 14 16 16 16 16 17 17 18 18 18 17 16 16 16 17 17 17 17
14 14 13 14 13 13 13 14 13 12 11 10 9 9 10 13 13 12 11 10 10 12 12 12 12 12 13 13 12 11 10 9 8 7 7 8 7 8 8 8 8 7 7 7 7 7 7 6 5 4 4 4 4 3 3 3 5 6 7 8 9 9 10 10 11 12 13 14 14 14 15 15 16 16 17 17 17 17 16 17 17 17 17 18 18 18
14 12 12 13 13 12 10 9 10 10 9 8 8 7 8 11 13 14 13 11 11 12 12 12 12 13 13 14 13 13 13 12 10 9 9 9 8 8 8 8 8 8 7 7 7 6 7 6 5 4 4 4 4 3 3 3 4 5 6 7 8 8 9 10 10 11 12 13 14 14 14 15 15 15 16 16 16 16 15 16 16 16 16 15 15 16
13 12 11 11 12 11 10 9 10 10 8 6 7 6 6 8 11 13 14 13 11 12 12 12 13 13 14 14 15 15 15 14 13 11 11 10 10 10 9 9 9 8 8 8 7 6 6 6 5 4 4 4 4 4 4 4 4 5 5 5 5 6 7 7 8 9 10 11 12 13 13 13 13 13 14 14 14 14 14 14 14 14 14 13 13 13
12 12 11 11 10 10 10 9 9 8 7 6 7 7 5 6 7 9 11 11 10 11 12 12 13 14 15 15 15 16 17 16 14 13 12 11 10 10 10 10 10 9 9 8 8 7 7 6 6 5 5 4 4 5 4 4 4 4 4 4 4 5 5 5 6 7 9 9 10 10 11 12 12 12 12 12 12 12 12 12 12 12 12 12 12 12
11 10 10 10 10 8 7 7 6 6 6 6 6 7 6 6 7 8 8 8 8 9 10 11 12 14 15 15 14 15 16 16 15 14 13 13 11 10 10 10 10 10 9 9 9 9 9 8 7 7 6 6 6 6 6 5 4 4 4 4 5 5 6 6 6 7 7 8 8 8 9 10 11 11 10 10 11 11 11 12 12 12 11 11 11 11
10 9 8 7 7 8 8 7 6 6 5 5 6 7 6 7 8 7 6 7 8 8 8 9 10 12 12 13 13 13 13 14 14 14 14 13 13 12 11 11 10 10 10 10 10 10 10 9 8 8 8 8 8 8 8 7 6 5 5 6 6 6 7 7 7 7 7 7 7 7 7 8 9 9 9 9 10 10 11 11 12 11 11 11 11 11
9 8 7 5 4 5 6 7 6 6 4 5 6 7 6 8 9 7 7 9 9 8 8 8 9 9 9 9 10 10 11 11 13 13 13 13 13 12 12 12 11 11 11 10 10 11 10 10 9 8 8 9 9 9 9 9 8 7 7 7 6 7 8 8 9 8 8 8 8 8 8 8 9 9 10 10 10 10 11 11 11 11 11 11 12 12
7 7 6 4 3 3 4 5 5 5 3 5 6 6 6 7 8 8 9 9 8 7 7 7 7 7 7 7 8 9 9 9 10 11 11 12 12 11 11 11 11 11 11 11 11 11 11 10 10 9 9 9 9 10 10 10 9 9 8 8 8 8 9 9 9 9 9 9 9 9 9 9 9 10 10 10 11 11 11 12 12 12 12 13 13 13
6 6 5 4 4 3 3 3 4 4 3 3 3 4 5 6 7 9 9 8 7 7 8 7 7 7 7 8 8 9 9 9 9 9 10 11 11 11 11 11 11 11 11 11 12 12 11 11 10 9 9 9 9 9 10 10 10 9 9 9 9 10 10 10 10 9 9 9 9 9 10 10 10 11 11 11 11 12 12 13 13 13 14 14 14 15
5 5 5 5 4 4 4 4 4 3 2 1 1 2 3 4 5 7 8 7 7 7 8 8 7 7 7 8 8 9 9 9 9 9 10 10 10 11 11 11 10 10 11 11 11 11 11 11 10 10 10 9 9 9 9 9 9 9 9 10 10 10 10 10 10 10 10 10 10 10 10 11 11 11 12 12 12 13 13 13 14 14 15 15 15 16
6 6 6 6 6 6 6 5 4 3 2 1 0 1 2 3 4 5 6 7 6 7 7 8 8 8 8 8 8 9 9 10 10 10 10 10 10 10 10 11 11 11 10 10 11 11 11 11 11 11 10 10 9 9 9 9 9 9 9 10 10 10 10 10 10 11 11 11 11 11 11 11 12 12 12 13 13 13 14 14 14 15 15 15 16 16
6 5 4 4 5 4 3 3 3 2 1 1 1 1 1 2 3 4 5 6 6 7 8 8 8 8 8 9 9 10 10 11 11 11 11 11 11 11 11 11 11 11 11 11 11 11 11 11 11 11 11 11 11 10 10 10 9 9 10 10 10 10 10 10 10 10 10 11 11 11 11 12 12 13 13 13 14 14 14 15 15 16 16 16 17 17
5 4 4 4 4 4 4 3 3 1 0 1 1 2 2 2 3 4 5 5 6 6 7 8 9 9 9 10 11 12 12 13 13 13 13 13 12 12 12 12 12 12 12 11 11 11 11 11 11 11 11 11 11 11 11 11 10 10 10 11 11 11 11 10 10 10 10 11 11 12 12 13 13 13 14 14 14 14 15 15 16 16 17 17 18 18
5 5 5 5 5 4 4 3 2 1 0 1 2 2 2 3 3 3 4 5 5 6 6 7 8 9 9 10 11 12 13 13 13 13 13 13 13 12 12 12 13 12 12 12 11 11 11 12 12 12 12 12 12 12 12 11 11 11 11 11 11 12 12 12 11 11 11 12 12 12 13 13 13 14 14 14 14 14 14 15 16 16 17 17 17 18
5 4 4 3 3 2 2 2 2 2 2 2 2 2 3 3 3 4 4 4 5 6 7 7 8 8 8 10 11 12 12 12 12 11 11 12 12 12 13 13 13 13 13 13 13 12 12 12 12 12 12 12 12 13 13 12 12 12 12 12 12 12 13 13 13 13 13 13 14 14 14 14 14 14 15 15 15 15 15 15 15 16 16 17 17 17
4 2 1 1 2 2 1 1 1 1 1 1 2 3 4 4 5 5 5 6 6 7 8 8 9 9 9 9 10 11 11 12 12 12 12 12 13 13 14 14 14 14 14 14 14 14 14 13 13 13 13 13 13 13 13 13 13 14 14 14 14 14 14 14 15 15 15 15 15 15 16 16 16 15 15 15 16 16 16 16 16 16 16 17 17 17
Wind_Direction
227 232 233 234 235 232 233 235 238 248 259 259 254 248 249 251 250 248 249 252 256 255 251 250 250 249 246 247 247 245 241 235 234 237 238 237 236 234 234 232 231 233 232 233 233 230 226 223 223 224 228 227 223 221 217 215 216 213 210 212 214 216 218 218 219 222 226 227 227 229 232 232 233 236 235 231 230 227 220 219 223 224 224 227 230 231
229 236 237 235 236 236 238 238 241 251 255 249 251 254 251 251 251 249 247 251 255 255 255 253 251 250 248 247 247 245 242 237 235 236 237 239 240 240 238 232 230 233 233 232 231 228 227 225 223 222 225 225 221 218 216 214 214 213 212 214 215 217 218 218 221 225 228 229 229 230 230 230 233 235 233 228 227 227 223 223 226 223 224 229 230 229
232 239 240 237 237 238 243 242 239 245 248 246 249 253 252 250 250 248 248 253 255 256 256 254 253 251 248 247 247 246 244 242 239 236 237 239 238 239 240 234 230 232 233 232 230 228 229 227 223 223 224 223 219 217 215 213 213 214 214 215 216 218 219 220 224 227 230 231 230 229 228 229 232 232 229 227 227 229 229 225 223 223 225 227 226 224
236 242 239 237 237 236 239 240 238 241 245 246 246 248 249 248 250 253 253 254 254 255 256 257 257 254 251 249 247 246 245 245 241 237 236 238 237 238 238 235 232 231 231 231 229 228 228 226 224 224 224 222 219 217 216 215 215 216 217 218 219 220 221 222 226 227 230 232 230 229 228 228 230 228 227 227 225 227 227 223 222 224 223 221 221 220
241 246 238 232 232 234 236 237 238 242 244 244 244 246 248 248 252 254 251 254 256 255 254 256 260 256 253 251 248 246 244 243 242 239 236 236 238 240 239 237 232 229 229 228 228 227 226 224 223 224 224 223 220 219 219 218 218 219 220 222 222 223 224 225 227 227 230 232 228 227 226 226 227 226 225 225 222 221 221 221 221 221 218 216 218 219
242 244 236 230 231 234 237 238 237 239 244 244 242 244 247 251 255 254 252 257 261 260 253 248 254 257 252 250 248 244 242 241 241 240 238 235 235 238 240 238 231 228 227 226 227 227 227 225 224 223 223 223 222 222 223 222 222 222 222 223 223 226 228 229 229 230 233 231 226 226 226 226 225 224 224 223 218 217 218 219 219 217 216 215 218 221
239 236 234 235 237 237 238 240 237 236 242 246 243 242 244 249 254 253 255 257 257 263 258 242 248 260 256 251 246 240 240 239 236 237 239 236 234 234 237 237 232 229 228 229 229 228 228 227 225 224 223 224 225 224 224 224 224 223 222 222 222 226 231 233 232 231 233 231 228 229 230 227 223 222 223 220 217 217 218 217 215 215 217 218 222 224
235 234 236 237 238 239 239 239 236 234 239 244 244 242 242 246 250 251 252 253 254 259 256 241 247 261 259 254 245 238 241 239 234 235 237 236 235 233 235 237 235 230 229 230 229 227 228 227 227 226 225 225 225 225 224 223 223 224 223 221 221 226 231 234 233 231 232 233 232 230 229 227 223 222 222 220 219 218 216 215 214 216 219 221 225 225
232 235 237 236 236 237 237 238 235 233 236 241 244 244 245 247 250 250 249 250 252 254 252 244 246 256 257 253 245 238 240 240 237 237 236 236 235 234 233 235 235 230 228 227 224 226 228 226 226 227 227 228 227 224 222 221 222 224 223 219 218 222 228 232 234 233 234 236 235 231 227 226 225 224 222 220 220 215 214 215 214 217 220 222 225 224
235 236 235 234 235 236 236 236 234 230 232 240 245 244 246 248 249 249 248 249 250 250 252 249 245 251 256 253 248 241 238 238 240 238 236 235 234 234 234 235 235 232 229 226 223 225 227 226 226 227 228 229 225 222 221 222 224 225 224 220 218 221 225 231 235 237 238 236 235 233 228 225 225 225 221 218 216 212 212 214 214 217 219 221 223 223
238 235 237 238 236 237 236 235 235 230 230 239 245 243 243 245 245 246 247 249 250 247 248 250 247 248 252 251 249 245 237 235 238 237 237 239 238 238 238 239 238 233 227 225 225 225 227 228 228 227 225 222 221 221 223 226 226 227 226 220 220 225 228 233 236 236 236 234 234 231 227 225 224 223 218 212 211 209 211 213 215 217 218 220 221 221
236 235 240 240 236 236 236 235 235 231 231 236 241 240 240 239 238 241 240 241 246 248 249 250 245 242 245 247 244 240 235 234 238 240 242 242 244 246 245 243 240 232 226 227 229 227 226 228 227 225 223 224 230 233 232 232 228 228 228 220 223 233 233 236 237 234 233 234 233 229 225 224 223 220 214 208 208 209 211 213 214 214 215 216 217 220
236 237 238 237 234 234 233 232 230 228 230 233 234 235 235 233 232 236 236 234 241 248 250 250 244 238 240 245 243 236 236 242 245 247 252 250 248 248 246 242 238 232 229 231 232 226 222 223 224 224 225 228 235 236 233 233 228 228 231 232 241 244 239 239 238 236 235 234 231 225 222 223 220 216 211 206 207 209 211 212 212 212 212 212 214 219
234 234 232 232 231 229 228 228 225 225 227 228 228 228 229 230 229 234 237 236 241 246 243 241 242 240 240 243 242 237 241 252 251 247 253 255 247 242 243 240 235 232 229 227 226 222 219 221 222 224 228 231 236 235 231 230 230 230 234 239 245 245 243 242 239 237 236 234 231 224 220 220 217 211 206 206 208 210 210 209 209 211 211 212 215 219
231 231 228 229 227 222 224 227 226 226 226 226 226 227 230 230 232 237 240 238 243 246 235 228 235 244 244 240 239 242 245 250 252 248 247 252 246 240 241 236 228 226 223 220 219 218 219 221 222 225 230 233 235 233 229 231 234 235 238 241 243 242 241 241 239 237 235 233 230 223 218 216 213 207 204 207 210 209 208 208 207 210 212 214 216 219
232 234 228 226 226 221 221 224 227 230 228 224 223 227 230 230 232 240 246 247 252 253 238 229 237 244 243 241 240 244 247 246 248 245 241 248 249 240 233 226 220 219 220 219 218 218 220 221 221 223 229 232 232 230 230 233 234 236 238 240 240 239 238 238 237 235 233 231 227 220 216 214 211 207 206 210 210 208 208 208 206 209 212 214 216 219
230 235 226 220 223 223 222 222 224 227 228 224 221 225 228 229 234 242 245 245 246 249 246 242 243 239 237 245 246 244 248 246 243 238 235 241 244 239 231 224 221 219 217 217 217 216 219 220 221 222 226 227 227 228 230 232 232 234 237 237 236 237 237 238 237 234 232 231 225 219 216 214 211 208 208 211 210 207 208 208 207 209 211 213 216 219
231 236 225 217 221 224 224 225 223 223 225 224 223 225 225 228 234 239 240 238 236 241 245 245 245 243 241 247 248 243 244 240 237 234 232 233 230 233 234 227 219 215 212 211 212 214 217 222 224 224 225 225 225 227 230 232 233 234 235 235 234 234 235 236 236 233 232 229 225 220 216 214 212 210 208 210 208 206 208 208 208 210 210 212 216 220
231 235 226 220 226 223 221 225 224 220 221 224 228 229 225 227 229 228 232 237 237 239 243 244 245 248 250 245 241 246 245 234 231 226 221 221 212 216 235 229 214 207 206 203 204 211 217 222 225 224 224 225 225 227 230 231 233 233 234 234 233 233 234 234 234 233 232 229 225 220 215 212 211 209 206 205 204 204 205 206 207 209 210 212 216 219
227 233 227 222 225 218 215 222 222 217 217 222 230 232 228 232 233 229 231 235 238 239 242 244 242 241 247 243 237 243 242 231 227 222 216 215 203 194 219 228 209 203 206 203 203 211 217 220 221 222 223 224 225 228 229 230 230 231 233 233 233 234 234 235 235 233 232 228 221 217 213 211 209 206 203 202 202 203 203 204 206 208 210 214 216 218
223 229 227 221 218 215 216 220 220 217 215 218 225 227 226 230 233 234 233 236 241 242 241 243 241 235 241 249 244 239 233 226 224 223 220 217 211 210 225 243 212 205 210 209 213 221 224 225 223 223 225 228 231 232 231 231 229 229 231 232 232 233 233 234 234 232 230 224 217 213 210 209 207 204 202 201 203 204 203 203 205 208 211 215 216 217
220 224 224 222 218 220 223 221 218 220 219 218 221 225 227 228 231 233 232 232 236 240 242 240 236 236 243 250 251 242 232 227 227 226 223 220 222 228 236 246 242 234 224 219 224 228 229 230 230 230 231 233 237 238 236 234 233 230 230 229 230 231 232 232 232 230 227 219 213 209 207 207 205 202 201 201 203 205 205 205 207 210 214 216 218 218
218 221 223 224 223 224 224 218 215 220 223 223 224 226 226 227 231 235 236 237 238 244 252 245 232 234 248 250 249 241 229 224 225 225 221 219 224 231 237 243 245 243 237 233 235 236 237 237 238 239 240 239 242 245 244 242 238 234 230 227 228 229 229 230 229 227 223 215 210 206 206 206 203 200 199 201 204 206 208 209 211 214 215 217 219 220
216 220 222 224 227 229 224 216 217 222 224 225 226 227 227 228 231 234 236 243 247 247 251 248 236 230 238 243 238 228 221 217 218 224 226 223 221 228 236 240 243 243 241 244 247 247 246 246 243 243 246 248 249 250 250 249 245 239 233 229 226 226 226 227 227 225 219 212 207 206 207 205 201 199 199 202 206 208 210 211 212 213 215 217 220 222
213 219 221 222 226 229 225 218 217 221 223 225 227 229 231 232 233 234 231 236 242 239 238 246 245 227 226 231 226 222 221 215 217 226 233 231 227 230 235 236 240 242 244 249 252 252 253 253 252 251 252 255 254 252 253 253 249 243 237 233 228 225 225 225 225 224 217 210 207 207 207 204 200 199 198 201 207 209 210 211 211 212 214 216 219 222
218 221 223 224 226 227 226 221 217 221 223 223 225 227 231 235 237 238 236 235 241 240 240 250 250 225 217 219 215 223 224 214 218 224 228 231 228 230 235 237 240 243 246 250 253 257 260 261 263 262 259 259 259 258 258 256 251 243 238 236 231 226 224 224 224 223 216 209 206 206 205 203 201 200 199 202 207 209 211 211 212 213 214 216 219 221
227 228 226 228 231 229 230 231 231 233 231 227 225 222 228 236 238 238 238 238 243 243 244 254 241 212 208 214 217 229 231 222 225 227 227 231 228 228 233 237 241 245 249 253 258 263 267 270 272 269 266 264 263 262 262 258 252 245 239 236 232 227 224 222 223 220 212 207 206 205 204 203 203 204 203 205 209 210 211 212 213 214 215 217 220 221
230 230 226 227 232 228 225 229 235 237 234 233 230 221 223 234 235 232 234 237 242 241 239 243 229 209 211 226 228 234 234 227 228 229 231 235 233 233 235 238 242 248 254 261 266 272 276 278 277 274 273 270 264 261 260 259 255 246 239 236 233 227 224 222 221 214 205 204 206 206 205 204 204 205 206 208 210 210 211 214 216 216 216 218 220 223
231 231 225 227 231 227 221 223 230 233 229 227 230 223 221 230 230 229 234 237 240 239 230 227 227 222 227 234 232 235 236 230 231 232 231 234 235 234 237 241 246 251 258 265 270 275 280 282 282 282 283 278 269 260 254 253 254 247 241 238 232 225 223 222 219 212 205 206 208 207 205 205 205 206 207 209 210 210 211 214 216 216 216 218 221 225
232 229 227 228 230 228 227 225 225 231 230 225 233 241 233 228 226 229 236 238 237 232 222 219 224 229 236 236 233 235 235 233 235 236 232 234 237 237 238 243 248 251 258 266 272 278 281 283 286 289 291 289 279 266 253 247 248 245 240 236 228 223 223 221 216 212 210 210 208 206 205 205 206 207 208 209 210 211 211 213 215 215 216 219 222 226
230 227 227 232 234 231 230 229 228 233 236 231 237 250 243 236 237 237 240 242 238 231 223 221 227 234 237 237 234 232 233 233 235 239 238 239 239 236 237 242 246 250 258 268 276 282 284 287 290 292 297 297 289 276 257 243 237 235 234 230 224 220 220 218 214 213 213 210 208 207 207 207 207 207 208 209 211 211 213 214 215 214 216 220 224 227
232 233 233 237 241 235 228 229 230 230 232 232 241 252 249 244 246 243 240 242 242 238 232 230 236 238 234 233 233 230 230 229 233 242 243 239 236 234 236 241 246 252 261 270 278 283 287 291 293 294 299 300 292 283 262 238 229 227 225 222 219 216 216 216 214 212 211 209 207 207 207 208 208 207 208 209 210 211 214 215 215 216 218 222 227 229
229 234 236 237 242 237 226 223 225 226 229 235 244 250 247 245 245 240 237 240 243 243 240 236 238 236 230 229 230 229 228 227 233 244 243 236 234 234 237 242 247 254 263 269 276 282 285 289 293 295 298 295 291 286 259 231 222 222 219 217 215 211 210 211 209 208 208 207 207 208 208 209 208 207 208 210 211 212 214 216 218 221 223 227 230 231
226 231 234 234 235 232 221 216 219 224 229 235 243 245 242 241 243 238 236 240 240 239 237 233 232 232 228 228 230 231 230 228 231 239 241 238 238 238 239 243 247 253 262 268 272 278 280 283 287 290 286 275 274 275 239 216 211 212 213 213 211 207 207 208 206 204 206 207 208 208 209 210 209 208 209 212 214 215 217 219 222 226 229 231 233 233
225 229 231 230 230 228 220 217 221 226 228 231 242 249 242 236 237 235 233 236 238 239 236 231 230 230 226 223 225 226 226 226 227 231 237 238 238 237 238 243 248 254 260 263 267 271 273 276 279 280 274 258 250 248 231 214 207 204 204 206 207 204 203 205 206 206 208 208 208 209 210 210 210 209 211 214 216 217 221 224 226 231 235 238 239 238
225 228 226 224 222 221 220 219 219 220 221 225 237 253 245 234 234 234 230 233 242 244 240 233 230 226 219 218 221 221 219 221 225 232 236 236 236 235 236 241 247 251 254 256 261 267 268 265 263 264 263 255 249 248 239 219 207 202 200 204 207 204 202 204 206 208 211 210 208 209 209 209 208 208 211 214 216 219 222 226 231 236 240 243 244 244
218 218 216 214 213 210 209 208 207 206 211 223 236 248 244 235 235 236 231 233 242 245 242 234 227 222 219 220 222 221 221 224 230 238 240 236 234 235 236 242 246 246 248 250 254 261 261 254 251 255 258 258 256 252 242 222 205 196 193 199 206 207 208 210 210 210 210 209 208 208 208 209 210 211 212 214 216 218 222 227 233 237 239 242 244 243
209 206 203 207 212 209 199 194 202 207 213 231 242 245 240 232 233 234 231 232 239 244 244 237 227 222 222 223 223 227 232 234 234 238 242 239 237 236 236 240 244 244 246 248 246 249 252 247 246 251 255 257 255 248 239 224 204 192 185 186 193 196 199 204 206 206 207 208 208 207 208 208 208 208 209 210 213 217 221 226 229 232 234 237 239 239
210 208 207 215 222 220 211 206 211 214 218 235 246 247 240 223 217 222 223 226 239 246 242 235 228 224 222 224 227 234 238 237 233 234 239 238 238 236 235 237 241 241 242 244 243 243 246 246 246 247 249 249 248 246 239 226 210 198 192 190 187 181 178 180 185 191 196 200 201 200 202 203 203 203 204 207 212 216 219 221 225 228 231 233 236 237
209 204 208 220 221 211 201 198 201 206 218 241 248 242 236 221 213 218 215 218 241 249 238 231 228 222 222 227 234 239 240 236 231 229 232 235 237 237 235 236 239 240 240 243 243 243 245 248 250 252 251 246 244 243 239 232 225 216 211 208 199 190 188 187 185 186 188 189 191 193 196 200 201 202 204 207 212 214 216 219 223 226 229 232 235 236
199 194 190 199 200 191 184 179 183 195 218 254 251 236 233 226 220 224 221 226 245 248 232 225 223 219 223 231 234 235 235 229 223 222 227 232 234 235 235 235 237 239 241 244 245 245 245 246 250 255 254 248 244 240 235 233 231 228 224 221 212 206 208 208 205 203 199 195 196 199 201 204 205 206 209 213 216 217 219 223 227 229 233 236 238 237
196 196 188 184 191 193 184 180 184 193 228 274 259 239 240 235 226 230 237 239 244 240 225 220 219 219 227 230 224 221 220 216 215 219 226 231 232 233 235 235 235 236 238 242 245 246 245 245 247 253 253 248 244 239 233 231 231 230 230 228 224 221 219 217 217 216 214 211 210 210 210 213 215 216 219 221 222 222 224 227 229 232 235 238 240 241
193 197 194 192 208 198 167 170 190 203 249 290 265 240 247 246 234 237 244 243 242 235 227 226 224 223 224 220 214 214 213 211 213 216 221 226 228 231 234 235 235 237 239 241 243 244 243 243 243 245 244 244 243 240 236 233 231 231 230 229 229 227 223 221 222 221 218 218 217 217 218 220 222 225 227 229 230 231 231 232 234 237 239 241 244 246
192 202 196 193 213 212 175 170 195 211 251 292 264 237 247 251 243 243 244 241 240 236 233 235 233 225 219 216 215 216 217 215 215 217 222 224 225 228 233 236 237 240 242 244 244 243 241 239 237 236 237 239 240 238 235 233 230 230 231 229 229 229 226 225 225 225 224 224 223 224 226 227 229 231 233 236 237 238 239 240 241 243 245 247 249 250
153 164 163 156 156 152 148 157 170 185 217 268 267 244 246 249 247 243 236 236 241 239 235 235 231 223 222 222 220 219 220 220 219 223 228 230 231 233 235 237 239 240 241 242 242 241 239 235 231 230 231 235 238 237 235 232 230 229 229 227 227 228 228 228 228 229 230 230 229 229 230 232 234 237 239 241 243 243 244 245 247 249 252 253 254 256
139 142 144 142 138 130 124 133 147 150 146 143 195 267 263 257 251 241 233 233 237 236 232 229 226 224 226 227 224 223 223 223 223 226 229 230 231 233 234 237 240 241 241 240 238 236 235 232 230 229 229 231 235 235 233 232 231 230 229 229 229 230 230 230 230 231 232 233 233 233 233 235 238 242 245 247 248 249 250 252 254 256 257 258 259 259
133 132 135 145 156 154 145 144 148 142 135 144 177 266 274 266 255 247 240 236 235 232 227 223 223 224 223 222 223 224 224 224 226 229 231 231 231 233 235 237 238 238 238 238 236 233 231 230 230 230 228 229 232 232 231 230 230 229 228 229 230 231 231 231 232 233 235 237 238 238 239 241 243 245 247 249 251 252 254 256 258 259 260 260 261 261
127 123 118 121 133 146 151 154 155 141 118 280 281 280 280 275 259 249 244 239 235 231 227 226 230 231 229 225 223 223 225 226 226 225 227 230 231 233 234 233 231 232 234 234 233 231 229 228 228 227 226 227 229 230 230 231 231 229 229 230 230 230 231 234 236 238 239 242 244 245 247 249 251 252 253 255 256 257 259 260 262 262 263 264 264 263
127 125 115 111 116 128 143 156 170 172 347 322 310 295 283 278 268 256 247 240 235 229 226 231 238 241 241 237 232 229 229 230 229 226 224 224 225 227 228 228 228 229 231 234 236 234 232 230 229 229 229 231 232 232 233 234 235 235 235 235 234 234 236 238 240 243 246 248 250 252 254 256 257 258 259 260 262 264 266 267 267 266 266 267 266 265
111 122 129 124 117 124 156 188 225 260 290 302 303 296 284 275 273 269 261 253 248 240 234 235 240 245 247 246 243 240 236 236 237 235 232 231 229 226 226 228 230 231 232 233 235 234 234 235 234 233 233 235 236 238 239 240 242 243 243 243 244 244 245 246 247 250 254 255 256 258 260 262 263 264 265 265 265 265 266 269 269 268 266 265 265 266
75 73 121 139 110 99 121 169 262 284 293 295 296 297 292 286 283 281 275 269 264 256 250 245 243 244 244 243 242 240 238 240 243 243 241 243 243 239 235 234 236 237 236 235 235 236 237 240 240 239 238 237 237 238 239 241 243 246 248 249 250 252 253 254 255 257 261 263 263 264 266 266 267 267 267 266 265 264 263 264 267 269 268 268 269 271